Simultaneous Nadir Overpasses (SNOs) Predictions

Prediction of SNOs between FY3D and AQUA Satellite Orbit:

Table of predicted SNOs for the next 14.0 days since TLE Epoch: 10/3/2020
Index Date (FY3D) Time (FY3D) Lat,Lon (FY3D) SZA (FY3D ) Date (AQUA) Time (AQUA) Lat,Lon (AQUA) SZA (AQUA ) Distance(km) Time Diff (sec)
1 10/03/2020 16:15:27 -50.62, -30.13 55.37 10/03/2020 16:16:22 -50.62, -30.14 55.47 1.11 55
2 10/03/2020 17:03:35 59.38, 142.08 116.82 10/03/2020 17:03:16 59.38, 142.09 116.85 0.45 19
3 10/06/2020 08:32:10 -49.45, 85.26 53.55 10/06/2020 08:33:10 -49.45, 85.24 53.66 1.49 60
4 10/06/2020 09:20:18 58.22,-102.77 118.75 10/06/2020 09:20:04 58.22,-102.75 118.76 1.39 14
5 10/06/2020 09:59:41 -77.18,-169.25 97.01 10/06/2020 09:58:28 -77.68,-166.75 96.64 82.74 73
6 10/09/2020 00:48:26 -49.77,-158.68 53.02 10/09/2020 00:49:31 -49.80,-158.73 53.15 5.14 65
7 10/09/2020 01:36:58 57.17, 12.49 120.55 10/09/2020 01:36:49 57.17, 12.51 120.56 1.90 9
8 10/09/2020 02:19:53 -80.39,-127.13 83.87 10/09/2020 02:18:39 -80.83,-128.24 83.63 52.28 74
9 10/11/2020 17:04:43 -50.08, -42.63 52.49 10/11/2020 17:05:54 -50.09, -42.73 52.59 7.39 71
10 10/11/2020 17:53:38 56.16, 127.81 122.28 10/11/2020 17:53:34 56.17, 127.84 122.28 1.99 4
11 10/11/2020 18:39:50 -71.27, -50.10 71.72 10/11/2020 18:38:36 -71.37, -50.61 71.56 21.72 74
12 10/14/2020 10:10:15 55.33,-116.75 123.84 10/14/2020 10:10:16 55.34,-116.73 123.83 1.67 1
13 10/14/2020 10:58:36 -63.54, 56.30 63.47 10/14/2020 10:57:24 -63.54, 56.26 63.34 1.86 72
14 10/17/2020 02:26:51 54.55, -1.26 125.33 10/17/2020 02:26:57 54.55, -1.25 125.31 0.94 6
